Weather History for McComb, MS

Change the Weather History Date:

Saturday, March 16, 2013

  Actual Average Record
Temperature  
Mean Temperature 60 °F -  
Max Temperature 75 °F 69 °F 85 °F (1982)
Min Temperature 46 °F 45 °F 26 °F (1988)
Degree Days  
Heating Degree Days 4    
Growing Degree Days 10 (Base 50)    
Moisture  
Dew Point 50 °F    
Average Humidity 68    
Maximum Humidity 97    
Minimum Humidity 40    
Precipitation  
Precipitation 0.00 in - - ()
Sea Level Pressure  
Sea Level Pressure 30.02 in    
Wind  
Wind Speed 7 mph (SSW)    
Max Wind Speed 13 mph    
Max Gust Speed 23 mph    
Visibility 9 miles    
Events      
Averages and records for this station are not official NWS values.
T = Trace of Precipitation, MM = Missing Value Source: NWS Daily Summary

Daily Weather History Graph

Daily Weather History Graph

Search for Another Location

Airport:

Trip Planner

Search our weather history database for the weather conditions in past years. The results will help you decide how hot, cold, wet, or windy it might be!

Date:

Astronomy

Mar. 16, 2013 Rise Set
Actual Time 7:10 AM CDT 7:10 PM CDT
Civil Twilight 6:46 AM CDT 7:35 PM CDT
Nautical Twilight 6:18 AM CDT 8:03 PM CDT
Astronomical Twilight 5:49 AM CDT 8:31 PM CDT
Moon 9:59 AM CDT (3/16) 11:59 PM CDT (3/16)
Length of Visible Light 12h 48m
Length of Day
12h 00m
Waxing Crescent, 23% of the Moon is Illuminated
Mar 16
Waxing Crescent
Mar 19
First Quarter
Mar 27
Full
Apr 2
Last Quarter
Apr 10
New

Hourly Weather History & Observations

Time (CDT) Temp. Windchill Dew Point Humidity Pressure Visibility Wind Dir Wind Speed Gust Speed Precip Events Conditions
12:53 AM 55.9 °F - 48.0 °F 75% 30.09 in 10.0 mi SSW 8.1 mph - N/A   Clear
1:53 AM 54.0 °F - 48.0 °F 80% 30.07 in 10.0 mi South 6.9 mph - N/A   Clear
2:53 AM 53.1 °F - 48.0 °F 83% 30.06 in 10.0 mi SW 3.5 mph - N/A   Clear
3:53 AM 48.0 °F - 46.0 °F 93% 30.05 in 10.0 mi Calm Calm - N/A   Clear
4:53 AM 46.0 °F 44.8 °F 45.0 °F 96% 30.05 in 9.0 mi South 3.5 mph - N/A   Clear
5:53 AM 48.9 °F - 46.0 °F 90% 30.05 in 6.0 mi Calm Calm - N/A   Clear
6:53 AM 48.9 °F - 48.0 °F 97% 30.06 in 6.0 mi SSW 4.6 mph - N/A   Clear
7:53 AM 51.1 °F - 50.0 °F 96% 30.06 in 4.0 mi South 5.8 mph - N/A   Clear
8:53 AM 57.0 °F - 52.0 °F 83% 30.07 in 10.0 mi SSW 5.8 mph - N/A   Clear
9:53 AM 64.0 °F - 54.0 °F 70% 30.08 in 10.0 mi SW 8.1 mph - N/A   Clear
10:25 AM 66.2 °F - 53.6 °F 64% 30.08 in 10.0 mi SSW 9.2 mph 23.0 mph N/A   Mostly Cloudy
10:53 AM 66.0 °F - 53.1 °F 63% 30.08 in 10.0 mi WSW 12.7 mph 17.3 mph N/A   Overcast
11:24 AM 66.2 °F - 53.6 °F 64% 30.08 in 10.0 mi WSW 10.4 mph - N/A   Mostly Cloudy
11:53 AM 69.1 °F - 53.1 °F 57% 30.07 in 10.0 mi SW 10.4 mph 19.6 mph N/A   Scattered Clouds
12:53 PM 71.1 °F - 52.0 °F 51% 30.05 in 10.0 mi SSW 9.2 mph 17.3 mph N/A   Clear
1:53 PM 73.9 °F - 50.0 °F 43% 30.01 in 10.0 mi SSW 8.1 mph 18.4 mph N/A   Clear
2:53 PM 75.0 °F - 48.9 °F 40% 29.98 in 10.0 mi SSW 10.4 mph 17.3 mph N/A   Clear
3:53 PM 75.0 °F - 48.9 °F 40% 29.95 in 10.0 mi South 10.4 mph 20.7 mph N/A   Clear
4:53 PM 75.0 °F - 48.9 °F 40% 29.93 in 10.0 mi South 11.5 mph - N/A   Clear
5:53 PM 73.0 °F - 48.9 °F 42% 29.93 in 10.0 mi South 10.4 mph - N/A   Clear
6:53 PM 71.1 °F - 48.9 °F 45% 29.93 in 10.0 mi SSW 5.8 mph - N/A   Clear
7:53 PM 64.9 °F - 48.9 °F 56% 29.94 in 10.0 mi South 4.6 mph - N/A   Clear
8:53 PM 61.0 °F - 51.1 °F 70% 29.95 in 10.0 mi South 5.8 mph - N/A   Clear
9:53 PM 60.1 °F - 51.1 °F 72% 29.96 in 10.0 mi South 4.6 mph - N/A   Clear
10:53 PM 57.9 °F - 51.1 °F 78% 29.98 in 10.0 mi SSW 4.6 mph - N/A   Clear
11:53 PM 55.9 °F - 51.1 °F 84% 29.97 in 10.0 mi South 4.6 mph - N/A   Clear